Regional Weather Roundup
Issued by NWS Newport/Morehead, NC

Current Version | Previous Version | Text Only | Print | Product List | Glossary On
Versions: 1 2 3 4 5 6 7 8 9 10 11 12 13 14 15 16 17 18 19 20 21 22 23 24 25 26 27 28 29 30 31 32 33 34 35 36 37 38 39 40 41 42 43 44 45 46 47 48 49 50
000
ASUS42 KMHX 240022
RWRMHX
WEATHER ROUNDUP FOR EASTERN NORTH CAROLINA
NATIONAL WEATHER SERVICE NEWPORT/MOREHEAD CITY NC
800 PM EDT WED JUL 23 2014

NOTE: "FAIR" INDICATES FEW OR NO CLOUDS BELOW 12,000 FEET
WITH NO SIGNIFICANT WEATHER AND/OR OBSTRUCTIONS TO VISIBILITY

NCZ015>017-031-032-045>047-102-103-240100-
NORTH COAST

CITY           SKY/WX    TMP DP  RH WIND       PRES   REMARKS
EDENTON        PTCLDY    82  75  79 SW10      29.91R
ELIZABETH CITY CLEAR     82  74  76 S14G21    29.89S
KITTY HAWK     CLEAR     81  75  82 SW7       29.90S
MANTEO         NOT AVBL

$$

NCZ045>047-081-094-103-104-240100-
CENTRAL COAST

CITY           SKY/WX    TMP DP  RH WIND       PRES   REMARKS
FRISCO         PTCLDY    80  76  87 SW10      29.93F
SWANQUARTER      N/A     81 N/A N/A SW13G23   29.88S

$$

NCZ095-097-098-100-101-240100-
SOUTHERN COAST

CITY           SKY/WX    TMP DP  RH WIND       PRES   REMARKS
BEAUFORT       PTCLDY    81  76  84 SW17      29.96S
CEDAR ISLAND     N/A     81 N/A N/A SW17      29.97S
JACKSONVILLE   MOCLDY    81  75  82 SW7       29.96R THUNDER
NEWPORT        NOT AVBL
PINEY ISLAND   PTCLDY    80  77  90 SW13      29.94S
WILMINGTON     CLOUDY    82  74  76 SW9       29.96F


$$

NCZ011>013-027>030-043-044-078>080-089-090>093-098-240100-
COASTAL PLAIN

CITY           SKY/WX    TMP DP  RH WIND       PRES   REMARKS
AHOSKIE        CLEAR     82  73  75 S3        29.90S
CLINTON        PTCLDY    81  77  88 CALM      29.95R
ELIZABETHTOWN  PTCLDY    82  74  77 S7        29.96S
GOLDSBORO      MOCLDY    83  76  79 S5        29.91F
GREENVILLE     CLOUDY    82  77  83 SW8       29.93F
HAVELOCK       MOCLDY    80  75  84 SW12G20   29.96S
KENANSVILLE    PTCLDY    82  73  74 CALM      29.95S
KINSTON        MOCLDY    84  75  74 SW5       29.93F
NEW BERN       MOCLDY    83  75  77 S8        29.95S
RICHLANDS      MOCLDY    79  73  83 SW12      29.94F
ROANOKE RAPIDS NOT AVBL
ROCKY MOUNT    PTCLDY    83  72  69 S9        29.91F
WASHINGTON     MOCLDY    79  76  91 CALM      29.93S
WHITEVILLE     MOCLDY    81  74  79 S6        29.95F

$$

AMZ130-135-150-152-154-156-158-170-250-252-270-ANZ085-086-088-633-658-670-240100-
MARINE OBSERVATIONS

STATION/POSITION TIME  TEMP    WIND        PRES    WAVE   SWELL
                       AIR SEA DIR/SP/G            HT/PER HT/PER
                 (UTC) (F)     (DEG/KT/KT) (MB)    (FT/S) (FT/S)
CHESAPEAKE LIGHT NOT AVBL
BUOY 44014       0000   79 79  200/ 17/ 21 1011.9    3/ 8   2/ 8
DUCK             0000   82 74  200/ 11/ 16 1011.8
2E DUCK          0000                        N/A     2/ 8
OREGON INLET     0000   81 84  210/ 18/ 20 1013.0
BUOY 44095       0000      78                N/A     3/ 8
20E OREGON INLET 2300          VRB 14/ 17    N/A
HATTERAS CG      0000   79 83  220/ 11/ 15 1014.1
DIAMOND BUOY     0000          VRB 17/ 21  1013.4    4/ 4   2/ 7
CAPE LOOKOUT     0000   80     230/ 12/ 16 1014.4
BEAUFORT LAB     0000   81 81  220/  7/ 13 1014.2
30 SE NEW RIVER  0000   80 81  230/ 17/ 19 1014.9    4/ 6   2/ 8
5 SE WRIGHTSVILL 0000   78 81  230/ 16/ 19   N/A
BUOY 41002       2249   82 82  220/ 16/ 19 1018.6    4/ 5   2/ 8
BUOY 41004       0000   82 83  200/ 10/ 12 1015.1    3/ 6   3/ 6

$$



USA.gov is the U.S. government's official web portal to all federal, state and local government web resources and services.